Time,TemperatureF,DewpointF,PressureIn,WindDirection,WindDirectionDegrees,WindSpeedMPH,WindSpeedGustMPH,Humidity,HourlyPrecipIn,Conditions,Clouds,dailyrainin,SoftwareType,DateUTC
2013-06-19 00:00:00,62.2,49.5,29.83,NNE,22,3.5,3.5,63,0.00,CLR,,0.00,WeatherDisplay:10.37,2013-06-19 04:00:00,
2013-06-19 00:01:00,62.2,49.5,29.83,North,0,3.5,3.5,63,0.00,CLR,,0.00,WeatherDisplay:10.37,2013-06-19 04:01:00,
2013-06-19 00:06:00,62.1,49.3,29.83,NE,45,3.5,3.5,63,0.00,CLR,,0.00,WeatherDisplay:10.37,2013-06-19 04:06:00,
2013-06-19 00:11:00,62.1,49.3,29.83,North,0,2.3,2.6,63,0.00,CLR,,0.00,WeatherDisplay:10.37,2013-06-19 04:11:00,
2013-06-19 00:16:00,62.1,49.3,29.83,NNE,22,2.3,2.4,63,0.00,CLR,,0.00,WeatherDisplay:10.37,2013-06-19 04:16:00,
2013-06-19 00:21:00,62.1,49.3,29.83,NNE,22,2.3,2.3,63,0.00,CLR,,0.00,WeatherDisplay:10.37,2013-06-19 04:21:00,
2013-06-19 00:26:00,61.9,49.1,29.83,NNE,22,2.3,2.3,63,0.00,CLR,,0.00,WeatherDisplay:10.37,2013-06-19 04:26:00,
2013-06-19 00:31:00,62.1,49.3,29.82,NE,45,3.5,3.5,63,0.00,CLR,,0.00,WeatherDisplay:10.37,2013-06-19 04:31:00,
2013-06-19 00:36:00,61.9,48.7,29.83,North,0,1.2,1.2,62,0.00,CLR,,0.00,WeatherDisplay:10.37,2013-06-19 04:36:00,
2013-06-19 00:41:00,61.7,49.0,29.82,NNW,338,2.3,2.3,63,0.00,CLR,,0.00,WeatherDisplay:10.37,2013-06-19 04:41:00,
2013-06-19 00:46:00,61.7,48.5,29.82,North,0,2.3,2.3,62,0.00,CLR,,0.00,WeatherDisplay:10.37,2013-06-19 04:46:00,
2013-06-19 00:51:00,61.7,48.5,29.82,North,0,1.2,1.2,62,0.00,CLR,,0.00,WeatherDisplay:10.37,2013-06-19 04:51:00,
2013-06-19 00:56:00,61.5,48.4,29.82,NNW,338,4.6,4.6,62,0.00,CLR,,0.00,WeatherDisplay:10.37,2013-06-19 04:56:00,
2013-06-19 01:01:00,61.5,48.4,29.82,NNE,22,1.2,1.2,62,0.00,CLR,,0.00,WeatherDisplay:10.37,2013-06-19 05:01:00,
2013-06-19 01:06:00,61.5,48.4,29.83,NNE,22,5.8,5.8,62,0.01,RA,,0.01,WeatherDisplay:10.37,2013-06-19 05:06:00,
2013-06-19 01:11:00,61.3,48.2,29.83,NE,45,3.5,3.5,62,0.01,RA,,0.01,WeatherDisplay:10.37,2013-06-19 05:11:00,
2013-06-19 01:16:00,61.3,48.2,29.82,NNW,338,3.5,3.5,62,0.01,CLR,,0.01,WeatherDisplay:10.37,2013-06-19 05:16:00,
2013-06-19 01:21:00,61.2,48.0,29.82,WNW,292,2.3,2.3,62,0.02,RA,,0.02,WeatherDisplay:10.37,2013-06-19 05:21:00,
2013-06-19 01:26:00,61.2,48.0,29.82,NNW,338,3.5,3.5,62,0.02,RA,,0.02,WeatherDisplay:10.37,2013-06-19 05:26:00,
2013-06-19 01:31:00,61.0,47.9,29.82,North,0,4.6,4.6,62,0.02,,,0.02,WeatherDisplay:10.37,2013-06-19 05:31:00,
2013-06-19 01:36:00,61.0,47.9,29.82,North,0,6.9,6.9,62,0.02,CLR,,0.02,WeatherDisplay:10.37,2013-06-19 05:36:00,
2013-06-19 01:41:00,60.8,47.7,29.82,NNW,338,8.1,8.1,62,0.02,CLR,,0.02,WeatherDisplay:10.37,2013-06-19 05:41:00,
2013-06-19 01:46:00,60.8,47.7,29.82,NNE,22,3.5,3.5,62,0.02,CLR,,0.02,WeatherDisplay:10.37,2013-06-19 05:46:00,
2013-06-19 01:51:00,60.8,47.7,29.82,NNW,338,3.5,3.5,62,0.02,CLR,,0.02,WeatherDisplay:10.37,2013-06-19 05:51:00,
2013-06-19 01:56:00,60.8,47.7,29.82,NNE,22,3.5,3.6,62,0.02,CLR,,0.02,WeatherDisplay:10.37,2013-06-19 05:56:00,
2013-06-19 02:01:00,60.8,47.7,29.82,NE,45,3.5,3.5,62,0.02,CLR,,0.02,WeatherDisplay:10.37,2013-06-19 06:01:00,
2013-06-19 02:06:00,60.6,47.5,29.82,NNE,22,3.5,3.5,62,0.01,CLR,,0.02,WeatherDisplay:10.37,2013-06-19 06:06:00,
2013-06-19 02:11:00,60.6,47.5,29.82,NNE,22,5.8,5.8,62,0.01,CLR,,0.02,WeatherDisplay:10.37,2013-06-19 06:11:00,
2013-06-19 02:16:00,60.4,47.4,29.82,North,0,6.9,6.9,62,0.01,CLR,,0.02,WeatherDisplay:10.37,2013-06-19 06:16:00,
2013-06-19 02:21:00,60.4,47.4,29.82,ENE,68,4.6,4.6,62,0.00,CLR,,0.02,WeatherDisplay:10.37,2013-06-19 06:21:00,
2013-06-19 02:26:00,60.3,47.2,29.82,North,0,6.9,6.9,62,0.00,CLR,,0.02,WeatherDisplay:10.37,2013-06-19 06:26:00,
2013-06-19 02:31:00,60.3,47.2,29.82,North,0,4.6,5.4,62,0.00,CLR,,0.02,WeatherDisplay:10.37,2013-06-19 06:31:00,
2013-06-19 02:36:00,60.1,47.0,29.82,NNW,338,2.4,2.4,62,0.00,CLR,,0.02,WeatherDisplay:10.37,2013-06-19 06:36:00,
2013-06-19 02:41:00,60.1,47.0,29.82,NNW,338,4.6,6.0,62,0.00,CLR,,0.02,WeatherDisplay:10.37,2013-06-19 06:41:00,
2013-06-19 02:47:00,59.9,46.8,29.82,North,0,4.6,4.6,62,0.01,RA,,0.03,WeatherDisplay:10.37,2013-06-19 06:47:00,
2013-06-19 02:52:00,59.9,46.8,29.82,North,0,4.6,4.6,62,0.01,RA,,0.03,WeatherDisplay:10.37,2013-06-19 06:52:00,
2013-06-19 02:57:00,59.9,46.8,29.82,NNW,338,4.6,4.6,62,0.01,CLR,,0.03,WeatherDisplay:10.37,2013-06-19 06:57:00,
2013-06-19 03:02:00,59.7,46.7,29.82,North,0,4.6,7.1,62,0.01,CLR,,0.03,WeatherDisplay:10.37,2013-06-19 07:02:00,
2013-06-19 03:07:00,59.7,46.7,29.82,North,0,8.1,8.1,62,0.01,CLR,,0.03,WeatherDisplay:10.37,2013-06-19 07:07:00,
2013-06-19 03:12:00,59.7,46.7,29.82,NNW,338,3.5,4.3,62,0.01,CLR,,0.03,WeatherDisplay:10.37,2013-06-19 07:12:00,
2013-06-19 03:17:00,59.5,46.5,29.82,NNE,22,6.9,6.9,62,0.01,CLR,,0.03,WeatherDisplay:10.37,2013-06-19 07:17:00,
2013-06-19 03:22:00,59.4,46.3,29.82,NNE,22,5.8,5.8,62,0.01,CLR,,0.03,WeatherDisplay:10.37,2013-06-19 07:22:00,
2013-06-19 03:27:00,59.4,46.3,29.82,NNW,338,5.8,5.8,62,0.01,CLR,,0.03,WeatherDisplay:10.37,2013-06-19 07:27:00,
2013-06-19 03:32:00,59.4,46.3,29.82,North,0,9.2,9.2,62,0.01,CLR,,0.03,WeatherDisplay:10.37,2013-06-19 07:32:00,
2013-06-19 03:37:00,59.2,46.2,29.82,NNE,22,9.2,9.2,62,0.01,CLR,,0.03,WeatherDisplay:10.37,2013-06-19 07:37:00,
2013-06-19 03:42:00,59.2,46.2,29.82,North,0,4.6,4.7,62,0.01,CLR,,0.03,WeatherDisplay:10.37,2013-06-19 07:42:00,
2013-06-19 03:47:00,59.0,46.0,29.82,North,0,5.8,5.8,62,0.00,CLR,,0.03,WeatherDisplay:10.37,2013-06-19 07:47:00,
2013-06-19 03:52:00,59.0,46.0,29.82,North,0,5.8,5.8,62,0.00,CLR,,0.03,WeatherDisplay:10.37,2013-06-19 07:52:00,
2013-06-19 03:57:00,58.8,45.4,29.82,NNE,22,4.6,4.7,61,0.00,CLR,,0.03,WeatherDisplay:10.37,2013-06-19 07:57:00,
2013-06-19 04:02:00,58.8,45.4,29.82,North,0,5.8,5.9,61,0.00,CLR,,0.03,WeatherDisplay:10.37,2013-06-19 08:02:00,
2013-06-19 04:07:00,58.6,45.2,29.82,NNW,338,5.8,6.0,61,0.00,CLR,,0.03,WeatherDisplay:10.37,2013-06-19 08:07:00,
2013-06-19 04:12:00,58.6,45.2,29.82,NNE,22,11.5,12.1,61,0.00,CLR,,0.03,WeatherDisplay:10.37,2013-06-19 08:12:00,
2013-06-19 04:17:00,58.6,45.2,29.82,North,0,10.4,10.4,61,0.00,CLR,,0.03,WeatherDisplay:10.37,2013-06-19 08:17:00,
2013-06-19 04:22:00,58.5,45.5,29.82,NNW,338,3.5,3.5,62,0.00,CLR,,0.03,WeatherDisplay:10.37,2013-06-19 08:22:00,
2013-06-19 04:27:00,58.5,45.5,29.82,North,0,6.9,7.4,62,0.00,CLR,,0.03,WeatherDisplay:10.37,2013-06-19 08:27:00,
2013-06-19 04:32:00,58.5,45.5,29.83,North,0,9.2,9.2,62,0.00,CLR,,0.03,WeatherDisplay:10.37,2013-06-19 08:32:00,
2013-06-19 04:37:00,58.5,45.5,29.82,NNW,338,4.6,4.9,62,0.00,CLR,,0.03,WeatherDisplay:10.37,2013-06-19 08:37:00,
2013-06-19 04:42:00,58.3,45.3,29.83,North,0,10.4,10.4,62,0.00,CLR,,0.03,WeatherDisplay:10.37,2013-06-19 08:42:00,
2013-06-19 04:47:00,58.3,45.3,29.83,NNE,22,4.6,4.7,62,0.00,CLR,,0.03,WeatherDisplay:10.37,2013-06-19 08:47:00,
2013-06-19 04:52:00,58.3,45.3,29.83,NE,45,8.1,8.1,62,0.00,CLR,,0.03,WeatherDisplay:10.37,2013-06-19 08:52:00,
2013-06-19 04:57:00,58.3,45.3,29.83,NNW,338,10.4,10.4,62,0.00,CLR,,0.03,WeatherDisplay:10.37,2013-06-19 08:57:00,
2013-06-19 05:02:00,58.3,45.7,29.83,NNE,22,9.2,9.2,63,0.00,CLR,,0.03,WeatherDisplay:10.37,2013-06-19 09:02:00,
2013-06-19 05:07:00,58.5,45.9,29.83,NNW,338,10.4,10.4,63,0.00,CLR,,0.03,WeatherDisplay:10.37,2013-06-19 09:07:00,
2013-06-19 05:12:00,58.5,45.9,29.83,ESE,112,5.8,5.8,63,0.00,CLR,,0.03,WeatherDisplay:10.37,2013-06-19 09:12:00,
2013-06-19 05:17:00,58.5,45.9,29.83,NNE,22,4.6,4.6,63,0.00,CLR,,0.03,WeatherDisplay:10.37,2013-06-19 09:17:00,
2013-06-19 05:22:00,58.5,45.9,29.83,NNE,22,9.2,9.2,63,0.00,CLR,,0.03,WeatherDisplay:10.37,2013-06-19 09:22:00,
2013-06-19 05:27:00,58.5,45.9,29.83,NNE,22,6.9,6.9,63,0.00,CLR,,0.03,WeatherDisplay:10.37,2013-06-19 09:27:00,
2013-06-19 05:32:00,58.6,46.1,29.83,NNE,22,2.3,2.6,63,0.00,CLR,,0.03,WeatherDisplay:10.37,2013-06-19 09:32:00,
2013-06-19 05:37:00,58.6,46.1,29.84,NNE,22,4.6,4.6,63,0.00,CLR,,0.03,WeatherDisplay:10.37,2013-06-19 09:37:00,
2013-06-19 05:42:00,58.6,46.1,29.84,NNE,22,4.6,4.6,63,0.00,CLR,,0.03,WeatherDisplay:10.37,2013-06-19 09:42:00,
2013-06-19 05:47:00,58.6,46.1,29.83,North,0,5.8,5.9,63,0.00,CLR,,0.03,WeatherDisplay:10.37,2013-06-19 09:47:00,
2013-06-19 05:52:00,58.6,46.1,29.83,North,0,4.6,4.6,63,0.00,CLR,,0.03,WeatherDisplay:10.37,2013-06-19 09:52:00,
2013-06-19 05:57:00,58.8,46.2,29.83,NE,45,2.3,2.4,63,0.00,CLR,,0.03,WeatherDisplay:10.37,2013-06-19 09:57:00,
2013-06-19 06:02:00,58.8,46.2,29.83,ENE,68,2.3,2.9,63,0.00,CLR,,0.03,WeatherDisplay:10.37,2013-06-19 10:02:00,
2013-06-19 06:07:00,59.0,46.4,29.84,NNW,338,4.6,4.6,63,0.00,CLR,,0.03,WeatherDisplay:10.37,2013-06-19 10:07:00,
2013-06-19 06:12:00,59.2,46.6,29.84,North,0,4.6,4.6,63,0.00,CLR,,0.03,WeatherDisplay:10.37,2013-06-19 10:12:00,
2013-06-19 06:17:00,59.2,46.6,29.84,North,0,6.9,6.9,63,0.00,CLR,,0.03,WeatherDisplay:10.37,2013-06-19 10:17:00,
2013-06-19 06:22:00,59.2,46.6,29.84,NE,45,5.8,5.8,63,0.00,CLR,,0.03,WeatherDisplay:10.37,2013-06-19 10:22:00,
2013-06-19 06:27:00,59.4,46.8,29.84,NNE,22,3.5,3.6,63,0.00,CLR,,0.03,WeatherDisplay:10.37,2013-06-19 10:27:00,
2013-06-19 06:32:00,59.5,46.9,29.85,NNE,22,4.6,4.9,63,0.00,CLR,,0.03,WeatherDisplay:10.37,2013-06-19 10:32:00,
2013-06-19 06:37:00,59.5,46.9,29.85,East,90,4.6,4.6,63,0.00,CLR,,0.03,WeatherDisplay:10.37,2013-06-19 10:37:00,
2013-06-19 06:42:00,59.7,47.1,29.85,NE,45,4.6,4.6,63,0.00,CLR,,0.03,WeatherDisplay:10.37,2013-06-19 10:42:00,
2013-06-19 06:47:00,59.7,47.1,29.85,North,0,4.6,4.6,63,0.00,CLR,,0.03,WeatherDisplay:10.37,2013-06-19 10:47:00,
2013-06-19 06:52:00,59.9,47.3,29.85,NNE,22,6.9,6.9,63,0.00,CLR,,0.03,WeatherDisplay:10.37,2013-06-19 10:52:00,
2013-06-19 06:57:00,59.9,47.7,29.85,East,90,4.6,4.7,64,0.00,CLR,,0.03,WeatherDisplay:10.37,2013-06-19 10:57:00,
2013-06-19 07:02:00,60.1,47.4,29.85,NNE,22,4.6,4.6,63,0.00,CLR,,0.03,WeatherDisplay:10.37,2013-06-19 11:02:00,
2013-06-19 07:07:00,60.1,47.4,29.85,NNE,22,12.7,12.7,63,0.00,CLR,,0.03,WeatherDisplay:10.37,2013-06-19 11:07:00,
2013-06-19 07:12:00,60.1,47.9,29.85,North,0,6.9,6.9,64,0.00,CLR,,0.03,WeatherDisplay:10.37,2013-06-19 11:12:00,
2013-06-19 07:17:00,60.1,47.9,29.86,NNE,22,4.6,4.6,64,0.00,CLR,,0.03,WeatherDisplay:10.37,2013-06-19 11:17:00,
2013-06-19 07:22:00,60.4,48.2,29.86,NNE,22,8.1,8.1,64,0.00,CLR,,0.03,WeatherDisplay:10.37,2013-06-19 11:22:00,
2013-06-19 07:27:00,60.4,48.2,29.87,North,0,8.1,8.5,64,0.00,CLR,,0.03,WeatherDisplay:10.37,2013-06-19 11:27:00,
2013-06-19 07:32:00,60.8,48.5,29.87,NE,45,5.8,5.8,64,0.00,CLR,,0.03,WeatherDisplay:10.37,2013-06-19 11:32:00,
2013-06-19 07:37:00,60.8,48.5,29.87,West,270,6.9,6.9,64,0.00,CLR,,0.03,WeatherDisplay:10.37,2013-06-19 11:37:00,
2013-06-19 07:42:00,60.8,48.5,29.88,NNE,22,8.1,8.1,64,0.00,CLR,,0.03,WeatherDisplay:10.37,2013-06-19 11:42:00,
2013-06-19 07:47:00,60.8,48.5,29.88,NNE,22,4.6,4.9,64,0.00,CLR,,0.03,WeatherDisplay:10.37,2013-06-19 11:47:00,
2013-06-19 07:52:00,61.3,49.1,29.88,ENE,68,8.1,8.1,64,0.00,CLR,,0.03,WeatherDisplay:10.37,2013-06-19 11:52:00,
2013-06-19 07:57:00,61.9,49.6,29.88,NE,45,8.1,8.1,64,0.00,CLR,,0.03,WeatherDisplay:10.37,2013-06-19 11:57:00,
2013-06-19 08:02:00,62.4,50.1,29.89,NNW,338,8.1,8.1,64,0.00,CLR,,0.03,WeatherDisplay:10.37,2013-06-19 12:02:00,
2013-06-19 08:07:00,62.8,50.4,29.89,NNW,338,4.6,4.6,64,0.00,CLR,,0.03,WeatherDisplay:10.37,2013-06-19 12:07:00,
2013-06-19 08:12:00,63.0,50.6,29.90,North,0,3.5,3.5,64,0.00,CLR,,0.03,WeatherDisplay:10.37,2013-06-19 12:12:00,
2013-06-19 08:17:00,63.0,50.6,29.90,NNW,338,5.8,5.8,64,0.00,CLR,,0.03,WeatherDisplay:10.37,2013-06-19 12:17:00,
2013-06-19 08:22:00,63.3,50.9,29.90,North,0,8.1,8.1,64,0.00,CLR,,0.03,WeatherDisplay:10.37,2013-06-19 12:22:00,
2013-06-19 08:27:00,63.9,51.0,29.90,NE,45,8.1,8.1,63,0.00,CLR,,0.03,WeatherDisplay:10.37,2013-06-19 12:27:00,
2013-06-19 08:32:00,64.0,51.6,29.90,NE,45,6.9,6.9,64,0.00,CLR,,0.03,WeatherDisplay:10.37,2013-06-19 12:32:00,
2013-06-19 08:37:00,64.8,51.9,29.90,NE,45,5.8,5.8,63,0.00,CLR,,0.03,WeatherDisplay:10.37,2013-06-19 12:37:00,
2013-06-19 08:42:00,65.5,52.5,29.90,NE,45,6.9,6.9,63,0.00,CLR,,0.03,WeatherDisplay:10.37,2013-06-19 12:42:00,
2013-06-19 08:47:00,66.4,53.0,29.90,NNW,338,5.8,5.8,62,0.00,CLR,,0.03,WeatherDisplay:10.37,2013-06-19 12:47:00,
2013-06-19 08:52:00,66.4,53.0,29.90,North,0,6.9,6.9,62,0.00,CLR,,0.03,WeatherDisplay:10.37,2013-06-19 12:52:00,
2013-06-19 08:57:00,66.2,52.8,29.90,NNE,22,5.8,5.8,62,0.00,CLR,,0.03,WeatherDisplay:10.37,2013-06-19 12:57:00,
2013-06-19 09:02:00,66.0,52.2,29.90,North,0,3.5,13.9,61,0.00,CLR,,0.03,WeatherDisplay:10.37,2013-06-19 13:02:00,
2013-06-19 09:07:00,66.2,52.3,29.90,NE,45,11.5,11.5,61,0.00,CLR,,0.03,WeatherDisplay:10.37,2013-06-19 13:07:00,
2013-06-19 09:13:00,66.7,52.4,29.91,NE,45,12.7,12.7,60,0.00,CLR,,0.03,WeatherDisplay:10.37,2013-06-19 13:13:00,
2013-06-19 09:18:00,67.1,53.2,29.91,NE,45,4.6,4.6,61,0.00,CLR,,0.03,WeatherDisplay:10.37,2013-06-19 13:18:00,
2013-06-19 09:23:00,67.5,53.1,29.91,NE,45,5.8,12.1,60,0.00,CLR,,0.03,WeatherDisplay:10.37,2013-06-19 13:23:00,
2013-06-19 09:28:00,67.8,53.4,29.91,NNE,22,5.8,5.8,60,0.00,CLR,,0.03,WeatherDisplay:10.37,2013-06-19 13:28:00,
2013-06-19 09:33:00,68.2,53.3,29.92,NE,45,10.4,10.4,59,0.00,CLR,,0.03,WeatherDisplay:10.37,2013-06-19 13:33:00,
2013-06-19 09:38:00,68.7,54.3,29.92,NNE,22,3.5,3.5,60,0.00,CLR,,0.03,WeatherDisplay:10.37,2013-06-19 13:38:00,
2013-06-19 09:43:00,69.4,54.0,29.92,NNW,338,10.4,10.4,58,0.00,CLR,,0.03,WeatherDisplay:10.37,2013-06-19 13:43:00,
2013-06-19 09:48:00,69.4,53.5,29.92,NNW,338,6.9,7.8,57,0.00,CLR,,0.03,WeatherDisplay:10.37,2013-06-19 13:48:00,
2013-06-19 09:53:00,69.4,53.5,29.92,North,0,6.9,6.9,57,0.00,CLR,,0.03,WeatherDisplay:10.37,2013-06-19 13:53:00,
2013-06-19 09:58:00,69.8,54.4,29.92,NNW,338,6.9,6.9,58,0.00,CLR,,0.03,WeatherDisplay:10.37,2013-06-19 13:58:00,
2013-06-19 10:03:00,70.0,54.0,29.92,NNE,22,4.6,4.9,57,0.00,CLR,,0.03,WeatherDisplay:10.37,2013-06-19 14:03:00,
2013-06-19 10:08:00,70.2,54.2,29.93,NNE,22,5.8,6.4,57,0.00,CLR,,0.03,WeatherDisplay:10.37,2013-06-19 14:08:00,
2013-06-19 10:13:00,70.9,55.4,29.93,North,0,4.6,4.6,58,0.00,CLR,,0.03,WeatherDisplay:10.37,2013-06-19 14:13:00,
2013-06-19 10:18:00,71.6,54.6,29.93,North,0,3.5,3.5,55,0.00,CLR,,0.03,WeatherDisplay:10.37,2013-06-19 14:18:00,
2013-06-19 10:23:00,72.3,55.7,29.93,ESE,112,6.9,6.9,56,0.00,CLR,,0.03,WeatherDisplay:10.37,2013-06-19 14:23:00,
2013-06-19 10:28:00,72.3,54.2,29.94,ENE,68,2.3,2.4,53,0.00,CLR,,0.03,WeatherDisplay:10.37,2013-06-19 14:28:00,
2013-06-19 10:33:00,72.1,54.6,29.94,NNW,338,4.6,4.9,54,0.00,CLR,,0.03,WeatherDisplay:10.37,2013-06-19 14:33:00,
2013-06-19 10:38:00,72.3,54.7,29.95,NE,45,6.9,6.9,54,0.00,CLR,,0.03,WeatherDisplay:10.37,2013-06-19 14:38:00,
2013-06-19 10:43:00,72.7,55.6,29.95,NNE,22,10.4,10.4,55,0.00,CLR,,0.03,WeatherDisplay:10.37,2013-06-19 14:43:00,
2013-06-19 10:48:00,73.0,54.9,29.95,NNW,338,5.8,5.8,53,0.00,CLR,,0.03,WeatherDisplay:10.37,2013-06-19 14:48:00,
2013-06-19 10:53:00,72.9,54.2,29.95,NE,45,10.4,10.5,52,0.00,CLR,,0.03,WeatherDisplay:10.37,2013-06-19 14:53:00,
2013-06-19 10:58:00,73.0,54.9,29.95,NE,45,3.5,3.6,53,0.00,CLR,,0.03,WeatherDisplay:10.37,2013-06-19 14:58:00,
2013-06-19 11:03:00,73.2,55.1,29.95,NNW,338,2.3,2.4,53,0.00,CLR,,0.03,WeatherDisplay:10.37,2013-06-19 15:03:00,
2013-06-19 11:08:00,74.1,55.9,29.95,NE,45,10.4,10.4,53,0.00,CLR,,0.03,WeatherDisplay:10.37,2013-06-19 15:08:00,
2013-06-19 11:13:00,74.1,54.3,29.95,NW,315,5.8,5.8,50,0.00,CLR,,0.03,WeatherDisplay:10.37,2013-06-19 15:13:00,
2013-06-19 11:18:00,73.6,53.8,29.95,NNW,338,8.1,8.1,50,0.00,CLR,,0.03,WeatherDisplay:10.37,2013-06-19 15:18:00,
2013-06-19 11:23:00,73.4,53.6,29.95,NNE,22,9.2,9.2,50,0.00,CLR,,0.03,WeatherDisplay:10.37,2013-06-19 15:23:00,
2013-06-19 11:28:00,73.8,54.5,29.95,NE,45,8.1,8.1,51,0.00,CLR,,0.03,WeatherDisplay:10.37,2013-06-19 15:28:00,
2013-06-19 11:33:00,74.7,55.3,29.95,NNE,22,6.9,6.9,51,0.00,CLR,,0.03,WeatherDisplay:10.37,2013-06-19 15:33:00,
2013-06-19 11:38:00,75.0,56.2,29.95,East,90,2.3,2.3,52,0.00,CLR,,0.03,WeatherDisplay:10.37,2013-06-19 15:38:00,
2013-06-19 11:43:00,75.2,54.7,29.95,North,0,8.1,8.1,49,0.00,CLR,,0.03,WeatherDisplay:10.37,2013-06-19 15:43:00,
2013-06-19 11:48:00,75.2,54.2,29.95,ENE,68,8.1,8.1,48,0.00,CLR,,0.03,WeatherDisplay:10.37,2013-06-19 15:48:00,
2013-06-19 11:53:00,75.2,54.7,29.95,NE,45,4.6,4.6,49,0.00,CLR,,0.03,WeatherDisplay:10.37,2013-06-19 15:53:00,
2013-06-19 11:58:00,75.2,54.7,29.95,NNW,338,9.2,9.2,49,0.00,CLR,,0.03,WeatherDisplay:10.37,2013-06-19 15:58:00,
2013-06-19 12:03:00,75.6,55.1,29.95,NNE,22,9.2,9.2,49,0.00,CLR,,0.03,WeatherDisplay:10.37,2013-06-19 16:03:00,
2013-06-19 12:08:00,75.9,56.5,29.95,North,0,5.8,6.0,51,0.00,CLR,,0.03,WeatherDisplay:10.37,2013-06-19 16:08:00,
2013-06-19 12:13:00,76.5,55.3,29.95,NNE,22,4.6,4.7,48,0.00,CLR,,0.03,WeatherDisplay:10.37,2013-06-19 16:13:00,
2013-06-19 12:18:00,76.8,56.2,29.95,NNE,22,6.9,6.9,49,0.00,CLR,,0.03,WeatherDisplay:10.37,2013-06-19 16:18:00,
2013-06-19 12:23:00,77.4,57.3,29.95,North,0,5.8,5.9,50,0.00,CLR,,0.03,WeatherDisplay:10.37,2013-06-19 16:23:00,
2013-06-19 12:28:00,77.5,56.9,29.95,East,90,3.5,3.5,49,0.00,CLR,,0.03,WeatherDisplay:10.37,2013-06-19 16:28:00,
2013-06-19 12:33:00,77.9,57.2,29.95,ENE,68,4.6,4.6,49,0.00,CLR,,0.03,WeatherDisplay:10.37,2013-06-19 16:33:00,
2013-06-19 12:38:00,78.4,57.7,29.95,NNE,22,4.6,4.6,49,0.00,CLR,,0.03,WeatherDisplay:10.37,2013-06-19 16:38:00,
2013-06-19 12:43:00,78.6,56.7,29.95,NE,45,6.9,6.9,47,0.00,CLR,,0.03,WeatherDisplay:10.37,2013-06-19 16:43:00,
2013-06-19 12:48:00,78.3,57.0,29.95,North,0,5.8,5.8,48,0.00,CLR,,0.03,WeatherDisplay:10.37,2013-06-19 16:48:00,
2013-06-19 12:53:00,78.3,57.5,29.95,ENE,68,5.8,5.8,49,0.00,CLR,,0.03,WeatherDisplay:10.37,2013-06-19 16:53:00,
2013-06-19 12:58:00,78.4,56.5,29.95,ENE,68,4.6,4.6,47,0.00,CLR,,0.03,WeatherDisplay:10.37,2013-06-19 16:58:00,
2013-06-19 13:03:00,78.6,57.9,29.95,North,0,3.5,3.5,49,0.00,CLR,,0.03,WeatherDisplay:10.37,2013-06-19 17:03:00,
2013-06-19 13:08:00,78.3,57.0,29.95,NE,45,5.8,5.8,48,0.00,CLR,,0.03,WeatherDisplay:10.37,2013-06-19 17:08:00,
2013-06-19 13:13:00,78.6,57.9,29.95,NE,45,3.5,3.5,49,0.00,CLR,,0.03,WeatherDisplay:10.37,2013-06-19 17:13:00,
2013-06-19 13:18:00,78.8,58.0,29.95,North,0,4.6,4.6,49,0.00,CLR,,0.03,WeatherDisplay:10.37,2013-06-19 17:18:00,
2013-06-19 13:23:00,78.6,57.9,29.95,NNE,22,5.8,6.2,49,0.00,CLR,,0.03,WeatherDisplay:10.37,2013-06-19 17:23:00,
2013-06-19 13:28:00,78.6,57.9,29.95,East,90,2.3,2.6,49,0.00,CLR,,0.03,WeatherDisplay:10.37,2013-06-19 17:28:00,
2013-06-19 13:33:00,78.3,57.5,29.95,NNW,338,5.8,5.9,49,0.00,CLR,,0.03,WeatherDisplay:10.37,2013-06-19 17:33:00,
2013-06-19 13:38:00,78.1,58.5,29.97,NNE,22,1.2,1.4,51,0.00,CLR,,0.03,WeatherDisplay:10.37,2013-06-19 17:38:00,
2013-06-19 13:43:00,78.6,59.0,29.97,SW,225,2.3,2.4,51,0.00,CLR,,0.03,WeatherDisplay:10.37,2013-06-19 17:43:00,
2013-06-19 13:48:00,79.2,60.0,29.97,NNW,338,4.6,4.7,52,0.00,CLR,,0.03,WeatherDisplay:10.37,2013-06-19 17:48:00,
2013-06-19 13:53:00,78.6,58.4,29.97,North,0,4.6,4.6,50,0.00,CLR,,0.03,WeatherDisplay:10.37,2013-06-19 17:53:00,
2013-06-19 13:58:00,78.4,58.3,29.97,SW,225,3.5,3.5,50,0.00,CLR,,0.03,WeatherDisplay:10.37,2013-06-19 17:58:00,
2013-06-19 14:03:00,78.1,58.5,29.97,NNW,338,5.8,5.8,51,0.00,CLR,,0.03,WeatherDisplay:10.37,2013-06-19 18:03:00,
2013-06-19 14:08:00,78.1,59.0,29.98,WSW,248,6.9,6.9,52,0.00,CLR,,0.03,WeatherDisplay:10.37,2013-06-19 18:08:00,
2013-06-19 14:13:00,77.9,58.9,29.98,North,0,5.8,5.8,52,0.00,CLR,,0.03,WeatherDisplay:10.37,2013-06-19 18:13:00,
2013-06-19 14:18:00,78.1,59.0,29.98,North,0,5.8,5.8,52,0.00,CLR,,0.03,WeatherDisplay:10.37,2013-06-19 18:18:00,
2013-06-19 14:23:00,78.3,59.2,29.98,South,180,2.3,2.3,52,0.00,CLR,,0.03,WeatherDisplay:10.37,2013-06-19 18:23:00,
2013-06-19 14:28:00,77.9,58.3,29.98,NNW,338,6.9,6.9,51,0.00,CLR,,0.03,WeatherDisplay:10.37,2013-06-19 18:28:00,
2013-06-19 14:33:00,77.9,58.9,29.98,NNW,338,3.5,3.5,52,0.00,CLR,,0.03,WeatherDisplay:10.37,2013-06-19 18:33:00,
2013-06-19 14:38:00,78.1,59.0,29.98,WNW,292,4.6,4.6,52,0.00,CLR,,0.03,WeatherDisplay:10.37,2013-06-19 18:38:00,
2013-06-19 14:43:00,77.7,59.2,29.99,North,0,5.2,5.2,53,0.00,CLR,,0.03,WeatherDisplay:10.37,2013-06-19 18:43:00,
2013-06-19 14:48:00,77.5,59.1,29.99,NW,315,5.8,5.8,53,0.00,CLR,,0.03,WeatherDisplay:10.37,2013-06-19 18:48:00,
2013-06-19 14:53:00,77.2,59.2,29.99,WNW,292,4.6,7.6,54,0.00,CLR,,0.03,WeatherDisplay:10.37,2013-06-19 18:53:00,
2013-06-19 14:59:00,77.2,59.2,29.99,NNW,338,4.6,5.6,54,0.00,CLR,,0.03,WeatherDisplay:10.37,2013-06-19 18:59:00,
2013-06-19 15:04:00,77.2,59.2,29.99,WNW,292,4.6,4.6,54,0.00,CLR,,0.03,WeatherDisplay:10.37,2013-06-19 19:04:00,
2013-06-19 15:09:00,77.2,59.2,29.99,WNW,292,6.9,6.9,54,0.00,CLR,,0.03,WeatherDisplay:10.37,2013-06-19 19:09:00,
2013-06-19 15:14:00,77.4,59.9,29.99,NNE,22,4.6,4.6,55,0.00,CLR,,0.03,WeatherDisplay:10.37,2013-06-19 19:14:00,
2013-06-19 15:19:00,77.4,59.4,29.99,NNW,338,4.6,4.6,54,0.00,CLR,,0.03,WeatherDisplay:10.37,2013-06-19 19:19:00,
2013-06-19 15:24:00,77.0,59.1,29.99,North,0,5.8,6.0,54,0.00,CLR,,0.03,WeatherDisplay:10.37,2013-06-19 19:24:00,
2013-06-19 15:29:00,77.0,59.6,30.00,NNW,338,8.1,8.1,55,0.00,CLR,,0.03,WeatherDisplay:10.37,2013-06-19 19:29:00,
2013-06-19 15:34:00,77.2,59.8,30.00,NNW,338,4.6,5.4,55,0.00,CLR,,0.03,WeatherDisplay:10.37,2013-06-19 19:34:00,
2013-06-19 15:39:00,77.2,59.8,30.00,WSW,248,4.6,4.6,55,0.00,CLR,,0.03,WeatherDisplay:10.37,2013-06-19 19:39:00,
2013-06-19 15:44:00,77.5,60.1,30.00,NNW,338,5.8,5.8,55,0.00,CLR,,0.03,WeatherDisplay:10.37,2013-06-19 19:44:00,
2013-06-19 15:49:00,77.7,59.7,30.00,North,0,4.6,4.6,54,0.00,CLR,,0.03,WeatherDisplay:10.37,2013-06-19 19:49:00,
2013-06-19 15:54:00,77.4,58.4,30.00,SSE,158,2.3,2.3,52,0.00,CLR,,0.03,WeatherDisplay:10.37,2013-06-19 19:54:00,
2013-06-19 15:59:00,77.0,58.0,30.00,North,0,1.2,1.6,52,0.00,CLR,,0.03,WeatherDisplay:10.37,2013-06-19 19:59:00,
2013-06-19 16:04:00,76.8,58.4,30.00,NNW,338,5.8,6.2,53,0.00,CLR,,0.03,WeatherDisplay:10.37,2013-06-19 20:04:00,
2013-06-19 16:09:00,76.3,56.3,30.00,NNE,22,6.9,6.9,50,0.00,CLR,,0.03,WeatherDisplay:10.37,2013-06-19 20:09:00,
2013-06-19 16:14:00,76.1,57.2,30.00,North,0,4.6,4.6,52,0.00,CLR,,0.03,WeatherDisplay:10.37,2013-06-19 20:14:00,
2013-06-19 16:19:00,76.3,57.9,30.00,NNW,338,4.6,4.6,53,0.00,CLR,,0.03,WeatherDisplay:10.37,2013-06-19 20:19:00,
2013-06-19 16:24:00,76.5,58.1,30.00,NNW,338,8.1,8.1,53,0.00,CLR,,0.03,WeatherDisplay:10.37,2013-06-19 20:24:00,
2013-06-19 16:29:00,76.3,57.4,30.00,NE,45,4.6,4.6,52,0.00,CLR,,0.03,WeatherDisplay:10.37,2013-06-19 20:29:00,
2013-06-19 16:34:00,75.9,54.8,30.00,North,0,3.5,3.8,48,0.00,CLR,,0.03,WeatherDisplay:10.37,2013-06-19 20:34:00,
2013-06-19 16:39:00,75.9,54.2,30.00,North,0,9.2,9.2,47,0.00,CLR,,0.03,WeatherDisplay:10.37,2013-06-19 20:39:00,
2013-06-19 16:44:00,75.4,52.6,30.00,North,0,6.9,6.9,45,0.00,CLR,,0.03,WeatherDisplay:10.37,2013-06-19 20:44:00,
2013-06-19 16:49:00,75.0,51.6,30.00,NE,45,4.6,4.6,44,0.00,CLR,,0.03,WeatherDisplay:10.37,2013-06-19 20:49:00,
2013-06-19 16:54:00,74.8,51.5,30.00,NE,45,3.5,3.5,44,0.00,CLR,,0.03,WeatherDisplay:10.37,2013-06-19 20:54:00,
2013-06-19 16:59:00,74.5,51.7,30.00,NNE,22,6.9,6.9,45,0.00,CLR,,0.03,WeatherDisplay:10.37,2013-06-19 20:59:00,
2013-06-19 17:04:00,74.1,50.2,30.00,NNE,22,3.5,3.5,43,0.00,CLR,,0.03,WeatherDisplay:10.37,2013-06-19 21:04:00,
2013-06-19 17:09:00,73.9,51.3,30.00,NNW,338,2.3,2.4,45,0.00,CLR,,0.03,WeatherDisplay:10.37,2013-06-19 21:09:00,
2013-06-19 17:14:00,73.9,50.0,30.00,ESE,112,1.2,1.6,43,0.00,CLR,,0.03,WeatherDisplay:10.37,2013-06-19 21:14:00,
2013-06-19 17:19:00,73.8,51.7,30.00,NE,45,4.6,4.6,46,0.00,CLR,,0.03,WeatherDisplay:10.37,2013-06-19 21:19:00,
2013-06-19 17:24:00,73.8,51.7,30.00,NNW,338,2.3,2.3,46,0.00,CLR,,0.03,WeatherDisplay:10.37,2013-06-19 21:24:00,
2013-06-19 17:29:00,73.4,51.4,30.00,ESE,112,2.3,2.3,46,0.00,CLR,,0.03,WeatherDisplay:10.37,2013-06-19 21:29:00,
2013-06-19 17:34:00,73.0,51.0,30.00,SSE,158,2.3,2.3,46,0.00,CLR,,0.03,WeatherDisplay:10.37,2013-06-19 21:34:00,
2013-06-19 17:39:00,73.0,50.4,30.02,NE,45,3.5,3.6,45,0.00,CLR,,0.03,WeatherDisplay:10.37,2013-06-19 21:39:00,
2013-06-19 17:44:00,72.5,49.9,30.02,ESE,112,2.3,2.3,45,0.00,CLR,,0.03,WeatherDisplay:10.37,2013-06-19 21:44:00,
2013-06-19 17:49:00,72.3,50.4,30.02,NE,45,3.5,3.5,46,0.00,CLR,,0.03,WeatherDisplay:10.37,2013-06-19 21:49:00,
2013-06-19 17:54:00,72.1,50.2,30.02,NNE,22,3.5,3.6,46,0.00,CLR,,0.03,WeatherDisplay:10.37,2013-06-19 21:54:00,
2013-06-19 17:59:00,71.6,50.3,30.02,ENE,68,4.6,4.6,47,0.00,CLR,,0.03,WeatherDisplay:10.37,2013-06-19 21:59:00,
2013-06-19 18:04:00,71.2,50.0,30.02,NNE,22,2.3,2.4,47,0.00,CLR,,0.03,WeatherDisplay:10.37,2013-06-19 22:04:00,
2013-06-19 18:09:00,70.9,50.2,30.03,NE,45,3.5,3.5,48,0.00,CLR,,0.03,WeatherDisplay:10.37,2013-06-19 22:09:00,
2013-06-19 18:14:00,70.7,50.0,30.03,NE,45,2.3,2.4,48,0.00,CLR,,0.03,WeatherDisplay:10.37,2013-06-19 22:14:00,
2013-06-19 18:19:00,70.5,49.3,30.03,NNE,22,3.5,3.5,47,0.00,CLR,,0.03,WeatherDisplay:10.37,2013-06-19 22:19:00,
2013-06-19 18:24:00,70.0,48.8,30.03,ENE,68,4.6,4.6,47,0.00,CLR,,0.03,WeatherDisplay:10.37,2013-06-19 22:24:00,
2013-06-19 18:29:00,69.8,48.7,30.03,North,0,4.6,4.6,47,0.00,CLR,,0.03,WeatherDisplay:10.37,2013-06-19 22:29:00,
2013-06-19 18:34:00,69.4,48.9,30.03,East,90,3.5,3.5,48,0.00,CLR,,0.03,WeatherDisplay:10.37,2013-06-19 22:34:00,
2013-06-19 18:39:00,69.4,48.9,30.03,NNW,338,2.3,2.3,48,0.00,CLR,,0.03,WeatherDisplay:10.37,2013-06-19 22:39:00,
2013-06-19 18:44:00,68.7,48.8,30.03,NNW,338,1.2,0.0,49,0.00,CLR,,0.03,WeatherDisplay:10.37,2013-06-19 22:44:00,
2013-06-19 18:49:00,68.7,48.8,30.03,East,90,2.3,2.4,49,0.00,CLR,,0.03,WeatherDisplay:10.37,2013-06-19 22:49:00,
2013-06-19 18:54:00,68.5,49.2,30.03,North,0,2.3,2.3,50,0.00,CLR,,0.03,WeatherDisplay:10.37,2013-06-19 22:54:00,
2013-06-19 18:59:00,68.4,49.5,30.03,NNE,22,3.5,3.5,51,0.00,CLR,,0.03,WeatherDisplay:10.37,2013-06-19 22:59:00,
2013-06-19 19:04:00,68.0,49.2,30.03,NNE,22,2.3,2.3,51,0.00,CLR,,0.03,WeatherDisplay:10.37,2013-06-19 23:04:00,
2013-06-19 19:09:00,68.0,49.2,30.03,NE,45,0.0,0.0,51,0.00,CLR,,0.03,WeatherDisplay:10.37,2013-06-19 23:09:00,
2013-06-19 19:14:00,67.8,49.5,30.03,SE,135,1.2,1.2,52,0.00,CLR,,0.03,WeatherDisplay:10.37,2013-06-19 23:14:00,
2013-06-19 19:19:00,67.5,49.2,30.03,SE,135,0.0,0.0,52,0.00,CLR,,0.03,WeatherDisplay:10.37,2013-06-19 23:19:00,
2013-06-19 19:24:00,67.3,49.6,30.05,East,90,1.2,1.2,53,0.00,CLR,,0.03,WeatherDisplay:10.37,2013-06-19 23:24:00,
2013-06-19 19:29:00,66.9,49.2,30.05,ESE,112,0.0,0.5,53,0.00,CLR,,0.03,WeatherDisplay:10.37,2013-06-19 23:29:00,
2013-06-19 19:34:00,66.6,49.4,30.05,NE,45,0.0,0.0,54,0.00,CLR,,0.03,WeatherDisplay:10.37,2013-06-19 23:34:00,
2013-06-19 19:39:00,66.2,49.1,30.05,SE,135,0.0,0.0,54,0.00,CLR,,0.03,WeatherDisplay:10.37,2013-06-19 23:39:00,
2013-06-19 19:44:00,65.8,49.2,30.05,East,90,0.0,0.0,55,0.00,CLR,,0.03,WeatherDisplay:10.37,2013-06-19 23:44:00,
2013-06-19 19:49:00,65.5,49.4,30.05,East,90,1.2,1.2,56,0.00,CLR,,0.03,WeatherDisplay:10.37,2013-06-19 23:49:00,
2013-06-19 19:54:00,65.1,49.0,30.05,ESE,112,0.0,0.0,56,0.00,CLR,,0.03,WeatherDisplay:10.37,2013-06-19 23:54:00,
2013-06-19 19:59:00,64.8,49.2,30.05,ESE,112,0.0,0.0,57,0.00,CLR,,0.03,WeatherDisplay:10.37,2013-06-19 23:59:00,
2013-06-19 20:04:00,64.4,48.8,30.06,ESE,112,0.0,0.0,57,0.00,CLR,,0.03,WeatherDisplay:10.37,2013-06-20 00:04:00,
2013-06-19 20:09:00,64.2,48.7,30.05,ESE,112,0.0,0.0,57,0.00,CLR,,0.03,WeatherDisplay:10.37,2013-06-20 00:09:00,
2013-06-19 20:14:00,63.9,48.8,30.05,ESE,112,0.0,0.0,58,0.00,CLR,,0.03,WeatherDisplay:10.37,2013-06-20 00:14:00,
2013-06-19 20:19:00,63.3,48.3,30.06,ESE,112,0.0,0.0,58,0.00,CLR,,0.03,WeatherDisplay:10.37,2013-06-20 00:19:00,
2013-06-19 20:24:00,62.8,48.2,30.06,ESE,112,0.0,0.0,59,0.00,CLR,,0.03,WeatherDisplay:10.37,2013-06-20 00:24:00,
2013-06-19 20:29:00,62.6,48.1,30.06,ESE,112,0.0,0.0,59,0.00,CLR,,0.03,WeatherDisplay:10.37,2013-06-20 00:29:00,
2013-06-19 20:34:00,62.2,47.7,30.06,ESE,112,0.0,0.0,59,0.00,CLR,,0.03,WeatherDisplay:10.37,2013-06-20 00:34:00,
2013-06-19 20:39:00,61.9,47.8,30.06,ESE,112,0.0,0.0,60,0.00,CLR,,0.03,WeatherDisplay:10.37,2013-06-20 00:39:00,
2013-06-19 20:45:00,61.3,47.8,30.06,ESE,112,0.0,0.0,61,0.00,CLR,,0.03,WeatherDisplay:10.37,2013-06-20 00:45:00,
2013-06-19 20:50:00,61.0,47.4,30.07,ESE,112,0.0,0.0,61,0.00,CLR,,0.03,WeatherDisplay:10.37,2013-06-20 00:50:00,
2013-06-19 20:55:00,60.8,47.7,30.07,ESE,112,0.0,0.0,62,0.00,CLR,,0.03,WeatherDisplay:10.37,2013-06-20 00:55:00,
2013-06-19 21:00:00,60.6,47.5,30.07,ESE,112,0.0,0.0,62,0.00,CLR,,0.03,WeatherDisplay:10.37,2013-06-20 01:00:00,
2013-06-19 21:05:00,60.4,47.4,30.07,ESE,112,0.0,0.0,62,0.00,CLR,,0.03,WeatherDisplay:10.37,2013-06-20 01:05:00,
2013-06-19 21:10:00,60.3,47.2,30.07,ESE,112,0.0,0.0,62,0.00,CLR,,0.03,WeatherDisplay:10.37,2013-06-20 01:10:00,
2013-06-19 21:15:00,60.1,47.4,30.08,ESE,112,0.0,0.0,63,0.00,CLR,,0.03,WeatherDisplay:10.37,2013-06-20 01:15:00,
2013-06-19 21:20:00,59.9,46.8,30.08,ESE,112,0.0,0.0,62,0.00,CLR,,0.03,WeatherDisplay:10.37,2013-06-20 01:20:00,
2013-06-19 21:25:00,59.7,46.7,30.08,ESE,112,0.0,0.0,62,0.00,CLR,,0.03,WeatherDisplay:10.37,2013-06-20 01:25:00,
2013-06-19 21:30:00,59.5,46.9,30.08,ESE,112,0.0,0.0,63,0.00,CLR,,0.03,WeatherDisplay:10.37,2013-06-20 01:30:00,
2013-06-19 21:35:00,59.4,46.8,30.08,ESE,112,0.0,0.0,63,0.00,CLR,,0.03,WeatherDisplay:10.37,2013-06-20 01:35:00,
2013-06-19 21:40:00,59.0,46.4,30.08,ESE,112,0.0,0.0,63,0.00,CLR,,0.03,WeatherDisplay:10.37,2013-06-20 01:40:00,
2013-06-19 21:45:00,58.6,46.1,30.08,ESE,112,0.0,0.0,63,0.00,CLR,,0.03,WeatherDisplay:10.37,2013-06-20 01:45:00,
2013-06-19 21:50:00,58.5,45.9,30.08,ESE,112,0.0,0.0,63,0.00,CLR,,0.03,WeatherDisplay:10.37,2013-06-20 01:50:00,
2013-06-19 21:55:00,58.3,46.2,30.10,South,180,0.0,0.0,64,0.00,CLR,,0.03,WeatherDisplay:10.37,2013-06-20 01:55:00,
2013-06-19 22:00:00,57.9,45.8,30.10,SW,225,0.0,0.0,64,0.00,CLR,,0.03,WeatherDisplay:10.37,2013-06-20 02:00:00,
2013-06-19 22:05:00,57.6,45.5,30.11,SW,225,1.2,1.2,64,0.00,CLR,,0.03,WeatherDisplay:10.37,2013-06-20 02:05:00,
2013-06-19 22:10:00,57.3,45.3,30.11,SW,226,2.0,3.0,64,0.00,CLR,,0.03,WeatherDisplay:10.37,2013-06-20 02:10:00,
2013-06-19 22:15:00,57.0,45.0,30.11,West,270,1.2,1.2,64,0.00,CLR,,0.03,WeatherDisplay:10.37,2013-06-20 02:15:00,
2013-06-19 22:20:00,56.8,44.8,30.11,SW,225,1.2,1.2,64,0.00,CLR,,0.03,WeatherDisplay:10.37,2013-06-20 02:20:00,
2013-06-19 22:25:00,56.8,44.8,30.11,SW,225,1.2,0.0,64,0.00,CLR,,0.03,WeatherDisplay:10.37,2013-06-20 02:25:00,
2013-06-19 22:30:00,56.8,44.8,30.11,SW,225,0.0,1.0,64,0.00,CLR,,0.03,WeatherDisplay:10.37,2013-06-20 02:30:00,
2013-06-19 22:35:00,56.8,44.8,30.12,SW,225,1.2,1.2,64,0.00,CLR,,0.03,WeatherDisplay:10.37,2013-06-20 02:35:00,
2013-06-19 22:40:00,56.8,44.8,30.12,SW,225,1.0,1.0,64,0.00,CLR,,0.03,WeatherDisplay:10.37,2013-06-20 02:40:00,
2013-06-19 22:45:00,56.7,44.6,30.12,SW,225,0.0,0.0,64,0.00,CLR,,0.03,WeatherDisplay:10.37,2013-06-20 02:45:00,
2013-06-19 22:50:00,56.7,44.6,30.12,SW,225,0.0,0.0,64,0.00,CLR,,0.03,WeatherDisplay:10.37,2013-06-20 02:50:00,
2013-06-19 22:55:00,56.5,44.4,30.12,SW,225,0.0,0.0,64,0.00,CLR,,0.03,WeatherDisplay:10.37,2013-06-20 02:55:00,
2013-06-19 23:00:00,56.5,44.4,30.12,SW,225,0.0,0.0,64,0.00,CLR,,0.03,WeatherDisplay:10.37,2013-06-20 03:00:00,
2013-06-19 23:05:00,56.3,44.3,30.12,SW,225,0.0,0.0,64,0.00,CLR,,0.03,WeatherDisplay:10.37,2013-06-20 03:05:00,
2013-06-19 23:10:00,56.1,44.1,30.12,SW,225,0.0,0.0,64,0.00,CLR,,0.03,WeatherDisplay:10.37,2013-06-20 03:10:00,
2013-06-19 23:15:00,55.9,43.9,30.12,SW,225,0.0,0.0,64,0.00,CLR,,0.03,WeatherDisplay:10.37,2013-06-20 03:15:00,
2013-06-19 23:20:00,55.9,43.9,30.12,SW,225,0.0,0.0,64,0.00,CLR,,0.03,WeatherDisplay:10.37,2013-06-20 03:20:00,
2013-06-19 23:25:00,55.8,43.8,30.13,SW,225,0.0,0.0,64,0.00,CLR,,0.03,WeatherDisplay:10.37,2013-06-20 03:25:00,
2013-06-19 23:30:00,55.8,43.8,30.13,SW,225,0.0,0.0,64,0.00,CLR,,0.03,WeatherDisplay:10.37,2013-06-20 03:30:00,
2013-06-19 23:35:00,55.6,43.6,30.13,SW,225,0.0,0.0,64,0.00,CLR,,0.03,WeatherDisplay:10.37,2013-06-20 03:35:00,
2013-06-19 23:40:00,55.4,43.4,30.13,SW,225,0.0,0.0,64,0.00,CLR,,0.03,WeatherDisplay:10.37,2013-06-20 03:40:00,
2013-06-19 23:45:00,55.2,43.2,30.12,SW,225,0.0,0.0,64,0.00,CLR,,0.03,WeatherDisplay:10.37,2013-06-20 03:45:00,
2013-06-19 23:50:00,55.2,43.6,30.13,SW,225,0.0,0.0,65,0.00,CLR,,0.03,WeatherDisplay:10.37,2013-06-20 03:50:00,
2013-06-19 23:55:00,55.0,43.5,30.13,SW,225,0.0,0.0,65,0.00,CLR,,0.03,WeatherDisplay:10.37,2013-06-20 03:55:00,